• In Denmark
  • List of Countries
  • For 7 days
  • Water Temperature
  • Satellite Maps
  • Weather Map
  • Weather Widgets
  • user-avatar
    Login

    Hourly Weather Dardamty

    Today, 18 October, Thursday

    Time Temperature Precipitation Wind Pressure Humidity
    00:00 -5°C° 0.1 mm 4 mps 668 mmHg 70%
    01:00 -5°C° 0.1 mm 4 mps 668 mmHg 69%
    02:00 -5°C° 0.1 mm 3 mps 668 mmHg 67%
    03:00 -6°C° 0 mm 3 mps 668 mmHg 66%
    04:00 -5°C° 0 mm 2 mps 668 mmHg 65%
    05:00 -4°C° 0 mm 1 mps 668 mmHg 67%
    06:00 -3°C° 0 mm 1 mps 668 mmHg 62%
    07:00 -2°C° 0 mm 1 mps 668 mmHg 57%
    08:00 -1°C° 0 mm 1 mps 668 mmHg 53%
    09:00 -2°C° 0 mm 2 mps 667 mmHg 48%
    10:00 +1°C° 0 mm 2 mps 667 mmHg 44%
    11:00 +2°C° 0 mm 2 mps 666 mmHg 40%
    12:00 +1°C° 0 mm 3 mps 666 mmHg 39%
    13:00 +2°C° 0 mm 3 mps 666 mmHg 39%
    14:00 +2°C° 0 mm 3 mps 665 mmHg 38%
    15:00 +1°C° 0 mm 3 mps 665 mmHg 42%
    16:00 0°C° 0 mm 3 mps 665 mmHg 45%
    17:00 -1°C° 0 mm 3 mps 665 mmHg 49%
    18:00 -2°C° 0 mm 3 mps 665 mmHg 50%
    19:00 -2°C° 0 mm 3 mps 664 mmHg 50%
    20:00 -2°C° 0 mm 3 mps 664 mmHg 50%
    21:00 -4°C° 0 mm 3 mps 664 mmHg 50%
    22:00 -3°C° 0 mm 2 mps 663 mmHg 51%
    23:00 -3°C° 0 mm 2 mps 663 mmHg 51%

    Tomorrow, 19 October, Friday

    Time Temperature Precipitation Wind Pressure Humidity
    00:00 -3°C° 0 mm 2 mps 663 mmHg 50%
    01:00 -3°C° 0 mm 2 mps 662 mmHg 49%
    02:00 -4°C° 0 mm 3 mps 662 mmHg 48%
    03:00 -3°C° 0 mm 2 mps 661 mmHg 48%
    04:00 -3°C° 0 mm 2 mps 661 mmHg 48%
    05:00 -3°C° 0 mm 2 mps 661 mmHg 48%
    06:00 -2°C° 0 mm 2 mps 661 mmHg 46%
    07:00 +1°C° 0 mm 2 mps 661 mmHg 45%
    08:00 +2°C° 0 mm 2 mps 662 mmHg 43%
    09:00 +3°C° 0 mm 2 mps 662 mmHg 42%
    10:00 +3°C° 0 mm 2 mps 662 mmHg 41%
    11:00 +5°C° 0 mm 1 mps 661 mmHg 40%
    12:00 +5°C° 0 mm 1 mps 662 mmHg 41%
    13:00 +5°C° 0 mm 1 mps 662 mmHg 42%
    14:00 +5°C° 0 mm 2 mps 662 mmHg 43%
    15:00 +4°C° 0.1 mm 2 mps 662 mmHg 46%
    16:00 +3°C° 0.1 mm 2 mps 663 mmHg 50%
    17:00 +2°C° 0.1 mm 2 mps 663 mmHg 53%
    18:00 +2°C° 0.1 mm 2 mps 664 mmHg 55%
    19:00 +2°C° 0.1 mm 2 mps 664 mmHg 57%
    20:00 +2°C° 0.1 mm 2 mps 665 mmHg 59%
    21:00 +2°C° 0.1 mm 2 mps 665 mmHg 61%
    22:00 +2°C° 0.1 mm 1 mps 665 mmHg 63%
    23:00 +2°C° 0.1 mm 1 mps 666 mmHg 65%

    Day after tomorrow, 20 October, Saturday

    Time Temperature Precipitation Wind Pressure Humidity
    00:00 +1°C° 0.1 mm 1 mps 665 mmHg 65%
    01:00 +1°C° 0.1 mm 1 mps 665 mmHg 66%
    02:00 +1°C° 0.1 mm 1 mps 665 mmHg 67%
    03:00 +1°C° 0.1 mm 1 mps 665 mmHg 68%
    04:00 +1°C° 0.1 mm 1 mps 665 mmHg 69%
    05:00 +1°C° 0.1 mm 1 mps 665 mmHg 70%
    06:00 +1°C° 0.1 mm 1 mps 666 mmHg 69%
    07:00 +2°C° 0.1 mm 1 mps 666 mmHg 68%
    08:00 +3°C° 0.1 mm 1 mps 666 mmHg 67%
    09:00 +3°C° 0.1 mm 1 mps 666 mmHg 66%
    10:00 +3°C° 0.1 mm 2 mps 666 mmHg 65%
    11:00 +3°C° 0.1 mm 2 mps 666 mmHg 64%
    12:00 +4°C° 0.1 mm 2 mps 666 mmHg 64%
    13:00 +4°C° 0.1 mm 2 mps 666 mmHg 63%
    14:00 +4°C° 0.1 mm 2 mps 666 mmHg 63%
    15:00 +4°C° 0 mm 2 mps 666 mmHg 66%
    16:00 +4°C° 0 mm 1 mps 666 mmHg 69%
    17:00 +4°C° 0 mm 1 mps 667 mmHg 73%
    18:00 +3°C° 0 mm 1 mps 667 mmHg 74%
    19:00 +3°C° 0 mm 1 mps 667 mmHg 75%
    20:00 +3°C° 0 mm 1 mps 667 mmHg 76%
    21:00 +3°C° 0 mm 1 mps 667 mmHg 76%
    22:00 +2°C° 0 mm 1 mps 667 mmHg 76%
    23:00 +2°C° 0 mm 1 mps 667 mmHg 76%

    21 October, Sunday

    Time Temperature Precipitation Wind Pressure Humidity
    00:00 +2°C° 0 mm 1 mps 667 mmHg 76%
    01:00 +2°C° 0 mm 1 mps 667 mmHg 76%
    02:00 +1°C° 0 mm 1 mps 667 mmHg 77%
    03:00 +1°C° 0 mm 1 mps 667 mmHg 76%
    04:00 +1°C° 0 mm 1 mps 667 mmHg 76%
    05:00 +1°C° 0 mm 1 mps 667 mmHg 76%
    06:00 +2°C° 0 mm 1 mps 667 mmHg 70%
    07:00 +4°C° 0 mm 1 mps 668 mmHg 64%
    08:00 +5°C° 0 mm 1 mps 668 mmHg 59%
    09:00 +5°C° 0 mm 2 mps 668 mmHg 56%
    10:00 +6°C° 0 mm 2 mps 668 mmHg 53%
    11:00 +8°C° 0 mm 3 mps 668 mmHg 50%
    12:00 +8°C° 0 mm 3 mps 667 mmHg 48%
    13:00 +9°C° 0 mm 3 mps 667 mmHg 46%
    14:00 +9°C° 0 mm 3 mps 667 mmHg 45%
    15:00 +8°C° 0 mm 3 mps 667 mmHg 48%
    16:00 +7°C° 0 mm 2 mps 667 mmHg 51%
    17:00 +6°C° 0 mm 2 mps 667 mmHg 54%
    18:00 +5°C° 0 mm 2 mps 667 mmHg 54%
    19:00 +5°C° 0 mm 2 mps 667 mmHg 54%
    20:00 +4°C° 0 mm 2 mps 667 mmHg 54%
    21:00 +4°C° 0 mm 2 mps 667 mmHg 53%
    22:00 +4°C° 0 mm 2 mps 667 mmHg 53%
    23:00 +3°C° 0 mm 2 mps 666 mmHg 52%

    22 October, Monday

    Time Temperature Precipitation Wind Pressure Humidity
    00:00 +3°C° 0 mm 2 mps 666 mmHg 51%
    01:00 +3°C° 0 mm 2 mps 666 mmHg 51%
    02:00 +3°C° 0 mm 2 mps 665 mmHg 50%
    03:00 +2°C° 0 mm 2 mps 665 mmHg 49%
    04:00 +2°C° 0 mm 2 mps 665 mmHg 48%
    05:00 +2°C° 0 mm 2 mps 665 mmHg 47%
    06:00 +4°C° 0 mm 2 mps 665 mmHg 44%
    07:00 +5°C° 0 mm 2 mps 666 mmHg 41%
    08:00 +6°C° 0 mm 2 mps 666 mmHg 38%
    09:00 +8°C° 0 mm 2 mps 665 mmHg 36%
    10:00 +9°C° 0 mm 2 mps 665 mmHg 35%
    11:00 +12°C° 0 mm 2 mps 665 mmHg 33%
    12:00 +12°C° 0 mm 2 mps 665 mmHg 32%
    13:00 +13°C° 0 mm 2 mps 665 mmHg 31%
    14:00 +13°C° 0 mm 2 mps 664 mmHg 30%
    15:00 +12°C° 0 mm 2 mps 664 mmHg 33%
    16:00 +9°C° 0 mm 2 mps 664 mmHg 36%
    17:00 +8°C° 0 mm 1 mps 663 mmHg 39%
    18:00 +8°C° 0 mm 1 mps 663 mmHg 39%
    19:00 +6°C° 0 mm 2 mps 663 mmHg 40%
    20:00 +6°C° 0 mm 2 mps 664 mmHg 40%
    21:00 +5°C° 0 mm 2 mps 663 mmHg 39%
    22:00 +5°C° 0 mm 2 mps 663 mmHg 39%
    23:00 +5°C° 0 mm 2 mps 663 mmHg 38%

    23 October, Tuesday

    Time Temperature Precipitation Wind Pressure Humidity
    00:00 +4°C° 0 mm 2 mps 662 mmHg 38%
    01:00 +4°C° 0 mm 2 mps 662 mmHg 37%
    02:00 +4°C° 0 mm 2 mps 662 mmHg 37%
    03:00 +3°C° 0 mm 2 mps 662 mmHg 36%
    04:00 +3°C° 0 mm 2 mps 661 mmHg 36%
    05:00 +3°C° 0 mm 2 mps 661 mmHg 35%
    06:00 +5°C° 0 mm 1 mps 662 mmHg 33%
    07:00 +7°C° 0 mm 1 mps 662 mmHg 32%
    08:00 +8°C° 0 mm 1 mps 662 mmHg 30%
    09:00 +9°C° 0 mm 1 mps 662 mmHg 29%
    10:00 +10°C° 0 mm 2 mps 662 mmHg 28%
    11:00 +12°C° 0 mm 2 mps 662 mmHg 27%
    12:00 +12°C° 0 mm 2 mps 662 mmHg 27%
    13:00 +12°C° 0 mm 2 mps 662 mmHg 27%
    14:00 +13°C° 0 mm 2 mps 662 mmHg 26%
    15:00 +10°C° 0 mm 2 mps 662 mmHg 29%
    16:00 +9°C° 0 mm 2 mps 662 mmHg 32%
    17:00 +9°C° 0 mm 1 mps 663 mmHg 35%
    18:00 +7°C° 0 mm 2 mps 663 mmHg 35%
    19:00 +7°C° 0 mm 2 mps 663 mmHg 34%
    20:00 +6°C° 0 mm 2 mps 663 mmHg 34%
    21:00 +6°C° 0 mm 2 mps 663 mmHg 34%
    22:00 +6°C° 0 mm 2 mps 663 mmHg 34%
    23:00 +6°C° 0 mm 2 mps 663 mmHg 34%
    Show more